Regional Weather Roundup
Issued by NWS Wakefield, VA

Home | Current Version | Previous Version | Text Only | Print | Product List | Glossary On
Versions: 1 2 3 4 5 6 7 8 9 10 11 12 13 14 15 16 17 18 19 20 21 22 23 24 25 26 27 28 29 30 31 32 33 34 35 36 37 38 39 40 41 42 43 44 45 46 47 48 49 50
000
ASUS41 KAKQ 242310
RWRAKQ

REGIONAL WEATHER ROUNDUP
NATIONAL WEATHER SERVICE WAKEFIELD VA
700 PM EDT THU JUL 24 2014

Note: "fair" indicates few or no clouds below 12,000 feet with no
significant weather and/or obstructions to visibility. * = Denotes
station may not report precipitation (e.g., rain,snow,etc.),
thunder or fog.

VAZ042-051-052>054-056-250000-
NORTHERN VIRGINIA

CITY           SKY/WX    TMP DP  RH WIND       PRES   REMARKS
WASH NATIONAL  CLOUDY    79  60  52 N7        29.90R
DULLES         CLOUDY    76  59  55 NW5       29.91R
FORT BELVOIR   CLOUDY    74  68  80 N2        29.90F
QUANTICO       CLOUDY    71  68  90 W8        29.91S
FREDERICKSBRG* CLOUDY    70  70 100 CALM      29.89F
STAFFORD*      CLOUDY    69  69 100 CALM      29.94F
WARRENTON      CLOUDY    72  72 100 CALM      29.90F
CULPEPER*      CLOUDY   N/A N/A N/A CALM      29.91F
MANASSAS*      NOT AVBL
LEESBURG*      CLOUDY    77  61  57 N9        29.92S
WINCHESTER     PTSUNNY   73  55  53 NE3       29.93R
$$

VAZ048-049-060>072-079>083-250000-
CENTRAL AND SOUTH CENTRAL VIRGINIA...AND NORTH CENTRAL NORTH CAROLINA

CITY           SKY/WX    TMP DP  RH WIND       PRES   REMARKS
RICHMOND       LGT RAIN  71  67  87 N9        29.90R FOG
CHESTERFIELD*  CLOUDY    70  57  64 N7        29.92R
HANOVER        HVY RAIN  69  67  93 CALM      29.91S FOG
TAPPAHANNOCK*  LGT RAIN  71  67  87 N3        29.90F
CHARLOTTSVILLE LGT RAIN  71  67  87 CALM      29.93S
ORANGE*        CLOUDY    70  64  83 CALM      29.93S
LOUISA*        CLOUDY    68  64  88 CALM      29.91R
FARMVILLE*     CLOUDY    68  66  94 NE8       29.90R
SOUTH HILL*    CLOUDY    70  70 100 N8G18     29.94R
ROANOKE RAPIDS LGT RAIN  81  72  74 E3        29.83S
RALEIGH        TSTM      72  68  88 NE9       29.86R
$$

VAZ088>098-250000-
SOUTHEAST VIRGINIA

CITY           SKY/WX    TMP DP  RH WIND       PRES   REMARKS
NORFOLK        PTSUNNY   78  70  76 NE9       29.84F
VIRGINIA BEACH CLOUDY    77  72  84 E9        29.84S
NORFOLK NAVAL  PTSUNNY   77  72  84 NE12      29.87S
WEST POINT*    CLOUDY    73  69  88 NE3       29.90F
NEWPORT NEWS   LGT RAIN  77  70  79 NE10      29.87R
LANGLEY AFB    CLOUDY    75  75 100 NE10      29.86R
FORT EUSTIS    TSTM      73  71  95 N8G18     29.87R FOG
WILLIAMSBURG*  CLOUDY    73  72  94 NE5       29.89R
FRANKLIN*      CLOUDY    81  70  69 SW5       29.85R
WAKEFIELD      LGT RAIN  71  69  93 VRB5      29.89R FOG
$$

VAZ020-022-025-037-045-250000-
WESTERN AND SOUTHWEST VIRGINIA

CITY           SKY/WX    TMP DP  RH WIND       PRES   REMARKS
STAUNTON*      CLOUDY    70  65  82 E3        29.97S
HOT SPRINGS VA FOG       62  60  94 NE3       30.07S VSB<1/4
LYNCHBURG      CLOUDY    69  67  93 NE13      29.94R
DANVILLE       CLOUDY    70  67  90 NE12      29.90F
MARTINSVILLE   CLOUDY    75  68  78 NE5       29.93R
ROANOKE        CLOUDY    72  65  78 NE6       29.95S
BLACKSBURG     CLOUDY    72  70  94 CALM        N/A
DUBLIN*        DRIZZLE   71  68  91 NW3       30.00S
MARION*        CLOUDY    72  66  83 W8        30.04R
HILLSVILLE*    PTSUNNY   71  65  81 N8        30.01R
RICHLANDS*     CLOUDY    67  65  94 NW8       30.05R FOG
WISE*          FOG       61  61 100 N9        30.08S VSB<1/4
ABINGDON*      CLOUDY    71  66  84 N7        30.01S
$$

MDZ021>025-VAZ099-100-250000-
SOUTHERN MARYLAND AND THE DELMARVA PENINSULA

CITY           SKY/WX    TMP DP  RH WIND       PRES   REMARKS
PATUXENT RIVER LGT RAIN  70  67  90 SW3       29.89S
BAY BRIDGE APT   N/A     77  61  57 CALM      29.89R
LEONARDTOWN    CLOUDY    70  64  83 CALM      29.91S
DOVER          PTSUNNY   76  63  62 N5        29.85S
GEORGETOWN     PTSUNNY   77  65  66 VRB5      29.88R
EASTON         CLOUDY    75  68  78 CALM      29.92S
CAMBRIDGE      CLOUDY    77  70  78 CALM      29.89R
SALISBURY      NOT AVBL
OCEAN CITY     CLOUDY    75  66  73 CALM      29.88R
WALLOPS ISLAND PTSUNNY   77  71  82 N5        29.89R
ACCOMACK*        N/A     75  70  83 CALM      29.89R
$$

NCZ012>017-030>032-250000-
EASTERN NORTH CAROLINA

CITY           SKY/WX    TMP DP  RH WIND       PRES   REMARKS
ELIZABETH CITY MOSUNNY   78  71  79 S6        29.86R
AHOSKIE*       MOSUNNY   78  71  80 SE6       29.86R
EDENTON*       MOSUNNY   77  72  83 S5        29.86S
CURRITUCK*     MOSUNNY   80  68  68 CALM      29.87S
KILL DEVIL HLS MOSUNNY   76  70  80 CALM      29.86R
MANTEO         NOT AVBL
CAPE HATTERAS  CLOUDY    75  71  87 W9        29.87S
GOLDSBORO      LGT RAIN  73  73 100 CALM      29.86S FOG
WASHINGTON     CLOUDY    75  73  94 CALM      29.85F
GREENVILLE     CLOUDY    77  73  88 SE3       29.88F
NEW BERN       LGT RAIN  75  72  88 S6        29.89R
WILMINGTON     MOSUNNY   76  73  91 S3        29.87F
$$

VAZ048-250000-
ELSEWHERE

CITY           SKY/WX    TMP DP  RH WIND       PRES   REMARKS
HARRISBURG PA  PTSUNNY   76  51  41 N10       29.91R
BALTIMORE      CLOUDY    76  58  53 VRB7      29.89R
ANNAPOLIS      CLOUDY    77  62  59 NW5       29.89R
ANDREWS AFB    CLOUDY    76  61  60 N6        29.89S
WILMINGTON DE  PTSUNNY   76  59  55 NW8       29.87R
PHILADELPHIA   CLOUDY    80  53  39 N13       29.86R
WILDWOOD NJ*   MOSUNNY   75  61  60 NW3       29.87R
ATLANTIC CITY  MOSUNNY   79  57  46 N6        29.85R
HENDERSON NC   HVY RAIN  69  67  93 N9G22     29.88R VSB 1
GREENSBORO     PTSUNNY   84  69  60 W10       29.86R
ROCKY MOUNT    CLOUDY    78  72  81 S6        29.87R
FAYETTEVILLE   PTSUNNY   89  71  55 W12       29.84R HX  95
CHARLOTTE      PTSUNNY   77  67  71 N12       29.91R
$$

VAZ100-250000-
MARINE

STATION/POSITION TIME  TEMP    WIND        PRES    WAVE   SWELL
                       AIR SEA DIR/SP/G            HT/PER HT/PER
                 (UTC) (F)     (DEG/KT/KT) (MB)    (FT/S) (FT/S)
44066 TX TWR #4  2300   74 74  340/  6/  8 1010.1R   3/ 8   2/ 8
CAPE MAY NJ      2300   75 79  300/  8/ 11 1010.7R
LEWES DE         2300   75 74  330/  7/  8 1010.9R
15NM E FENWICK I 2300   75 76              1011.5R   2/ 7
OCEAN-CITY-INLET 2300   75 70  350/  6/  8 1011.2R
WACHAPREAGUE VA  2300   74 82  350/  3/  4 1011.6R
THOMAS POINT MD  2300   76 80  330/  2/  4 1012.4R
GOOSES REEF MD   2300   76      10/  6/  6 1012.5R
COVE POINT MD    2300   75      20/  4/  6 1012.0R
SOLOMONS ISLAND  2300      81                N/A
BISHOPS HEAD MD  2300   74 80  300/  3/  4 1011.6S
PINEY POINT MD   2300           90/  2/  2   N/A
POTOMAC MD       2300   72      30/  6/  8 1011.7F
CAMBRIDGE MD     2300   77 80  310/  4/  7 1011.3F
LEWISETTA VA     2300   72 81   20/  4/  5 1012.3S
RAPPAHANNOCK LGT 2300          360/ 15/ 17 1012.3R
STINGRAY PT      2300   77     360/ 16/ 17 1012.7S
YORK RVR RNG VA  2300   77      30/ 18/ 20 1010.4F
YORKTOWN VA      2300   77 81   30/ 15/ 17 1011.0R
JAMESTOWN VA     2300   71      30/ 12/ 21   N/A
DOMINION TERM VA 2300   76      50/  6/ 10 1010.7F
KIPTOPEKE VA     2300      83   90/  4/  6   N/A
CHES BAY BRIDGE  2300   76 79   60/  8/  8 1010.4S
CAPE HENRY VA    2300   76      90/  6/  6 1010.0S
WILLOUBY STN VA  2300           80/  9/ 10 1009.9F
S CRANEY ISL VA  2300           20/ 12/ 15 1010.4F
CAPE HENRY BUOY  2300      78                N/A     2/ 6
1ST LANDING BUOY 2300   76      90/  6/  8 1010.8S
CAPE CHARLES BUO 2300      77                N/A     2/ 6
OFFSHORE WE BUOY 2300      79                N/A     2/ 6
64NM E OF VA BCH 2300   77 78   10/  4/  4 1010.8R   3/ 7   3/ 7
DUCK PIER NC     2300   79 74   CALM  /  2 1010.5S
44056 DUCK FRF   2300                        N/A     2/11
OREGON INLET NC  2300   77 82  170/  2/  3 1010.7F
HATTERAS NC      2300   75 82  230/ 10/ 12 1011.6S
DIAMOND SHLS NC  2300          VRB 14/ 16  1011.0S   4/ 7   2/ 7
CAPE LOOKOUT NC  2200   72     200/  7/ 10 1012.2F
$$


USA.gov is the U.S. government's official web portal to all federal, state and local government web resources and services.